Location: Albany
(35.0170°S, 117.8920°E)
Time: 16:32:09
(UTC+08:00)

Transit 2A - Pass Details

Date: 27 January 2021
Orbit: 601 x 958 km, 66.7° (Epoch: 02 March)

Event Time Altitude Azimuth Distance (km) Brightness Sun altitude
Rises 14:32:45 0° 343° (NNW) 2,926 9.3 56.5°
Reaches altitude 10° 14:34:56 10° 346° (NNW) 2,061 8.7 56.1°
Maximum altitude 14:39:32 63° 67° (ENE) 782 6.7 55.2°
Drops below altitude 10° 14:44:41 10° 147° (SSE) 2,297 8.3 54.2°
Sets 14:47:14 0° 150° (SSE) 3,291 9.0 53.7°
